Voltar ao catálogo

ATLAS 5 CENTAUR DEB

LostHEO
NORAD 44671·DEBRIS·🇺🇸 United States

Lançado Oct 17, 2018 de Cape Canaveral Space Force Station

Loading…

Próximas Passagens (próximas 24 horas)

TLE

ObsoletoSource: Space-Track

Época: Feb 29, 2024, 17:25 UTC

1 44671U 18079AH  24060.72619308 -.00000068  00000-0  00000-0 0  9990
2 44671  11.7269 109.9495 4520045 178.2527 184.1606  1.88951866 32440

Acompanhe ATLAS 5 CENTAUR DEB em tempo real com AllMySat

Download on the App Store